Regional Weather Roundup
Issued by NWS

Home | Current Version | Previous Version | Graphics & Text | Print | Product List | Glossary On
Versions: 1 2 3 4 5 6 7 8 9 10 11 12 13 14 15 16 17 18 19 20 21 22 23 24 25 26 27
000
ASUS45 KTFX 180010
RWRMT
MONTANA REGIONAL WEATHER ROUNDUP
NATIONAL WEATHER SERVICE GREAT FALLS MT
500 PM MST SAT FEB 17 2018

NOTE: "FAIR" INDICATES FEW OR NO CLOUDS BELOW 12000 FEET WITH NO
SIGNIFICANT WEATHER AND/OR OBSTRUCTIONS TO VISIBILITY.

MTZ001>007-043-180100-
WEST OF THE DIVIDE

CITY           SKY/WX    TMP DP  RH WIND       PRES   REMARKS
KALISPELL      LGT SNOW  26  25  96 VRB6      29.43F VSB 3/4 WCI  19
MISSOULA       LGT SNOW  33  31  92 SE13      29.47F FOG     WCI  24
BUTTE          LGT SNOW  31  27  85 NE7       29.48F VSB 1   WCI  24
MULLAN PASS    SNOW      29  28  96 SW21G36   29.31F VSB 1/4 WCI  16
ANACONDA         N/A     32  27  80 MISG      29.45F
DEER LODGE       N/A     34  28  80 SE16      29.46F WCI  23
EUREKA           N/A     25  23  93 MISG      29.43F VSB 1/4
HAMILTON         N/A     34  32  93 MISG      29.48F
PLAINS           N/A     30  22  72 CALM      29.47F
RONAN            N/A     36  32  87 SE12G18   29.44F WCI  27
$$

MTZ008-052>055-180100-
SOUTHWEST MONTANA

CITY           SKY/WX    TMP DP  RH WIND       PRES   REMARKS
BOZEMAN        CLOUDY    35  25  66 E9        29.51F WCI  28
DILLON         CLOUDY    33  19  56 S16       29.51F WCI  23
ENNIS          CLOUDY    37  21  52 S32G38    29.59F WCI  25
W YELLOWSTONE  LGT SNOW  27  23  86 SW18G33   29.65F VSB 3/4 WCI  13
THREE FORKS      N/A     39  26  60 S21       29.53F WCI  29
$$

MTZ009-010-012-014-046-048-049-054-180100-
EAST SLOPES AND CENTRAL MONTANA

CITY           SKY/WX    TMP DP  RH WIND       PRES   REMARKS
CUT BANK       SNOW      11   9  92 E10       29.59F VSB 1/4 WCI  -3
GREAT FALLS    SNOW      20  17  88 NE16      29.47F VSB 1/2 WCI   6
MALMSTROM AFB  LGT SNOW  19  18  97 NE14      29.50F WCI   5
HELENA         CLOUDY    25  24  96 NW3       29.46F
BOWMANS CRNR   SNOW      15  14  93 N14       29.44F VSB 1/2 WCI   1
FAIRFIELD      SNOW      17  13  87 NE10      29.50F VSB 1/2 WCI   4
WHITE SULPHUR  FOG       28  27  93 S23G31    29.45F VSB 1/2 WCI  14
$$

MTZ011-013-016-021-045-047-050-051-180100-
NORTH CENTRAL MONTANA

CITY           SKY/WX    TMP DP  RH WIND       PRES   REMARKS
HAVRE          SNOW      12   8  84 E33       29.70F VSB 1/4 WCI -10
LEWISTOWN      LGT SNOW  18  16  92 E20       29.54F VSB 3/4 WCI   2
N BAR RANCH    MOCLDY    16  12  86 E10       29.61F FOG     WCI   3
CHINOOK          N/A     10   7  85 MISG      29.77F
WINIFRED       LGT SNOW  16  14  93 E31       29.57F VSB 5/8 WCI  -5
$$

MTZ017>020-022>027-061-062-180100-
NORTHEAST MONTANA

CITY           SKY/WX    TMP DP  RH WIND       PRES   REMARKS
GLASGOW        CLOUDY    13   5  70 E7        29.85F WCI   3
GLENDIVE       CLOUDY    18  10  71 S5        29.87F
JORDAN           N/A     16  12  84 E14       29.80F WCI   2
MALTA          CLOUDY    10   5  79 E9        29.81F WCI  -2
SIDNEY         FAIR      17   8  67 NW3       29.92F
WOLF POINT     CLOUDY    16   6  65 S3        29.90F
PLENTYWOOD       N/A     10   1  67 CALM      29.86F
SCOBEY           N/A     11  -2  56 CALM      29.84
$$

MTZ028>42-056>058-180100-
SOUTHCENTRAL AND SOUTHEAST MONTANA

CITY           SKY/WX    TMP DP  RH WIND       PRES   REMARKS
BAKER          CLOUDY    14  10  84 E7        29.83F WCI   4
BILLINGS       CLOUDY    20  18  92 NE12      29.63F WCI   8
LIVINGSTON     FLURRIES  37  28  70 SW30G51   29.48F WCI  24
MILES CITY     CLOUDY    20  14  77 E8        29.80F WCI  10
BIG TIMBER     MOCLDY    27  25  93 SE13      29.57F FOG     WCI  16
EKALAKA          N/A     16   3  56 SE8       29.76  WCI   5
FORSYTH          N/A     19  14  79 E13       29.75F WCI   7
LAUREL           N/A     21  19  93 NE14      29.64F WCI   8
$$

REGIONAL REPORTS...DAKOTAS

CITY           SKY/WX    TMP DP  RH WIND       PRES   REMARKS
WILLISTON      FAIR      14   5  67 NW6       29.91F WCI   5
MINOT          FAIR      15   4  61 W12       29.91F WCI   2
DICKINSON      FAIR      15   7  70 SW5       29.86F
BEACH          FAIR      14   9  79 SE3       29.89F
CROSBY         FAIR       9   1  72 SW3       29.91S
TIOGA          FAIR      10   5  79 W6G12     29.90S WCI   1
WATFORD CITY   FAIR      14   7  73 NW5       29.90F
BISMARCK       FAIR      20   9  62 W6        29.96F WCI  12
GRAND FORKS    FAIR      19  11  70 W9        29.94S WCI   8
FARGO          FAIR      19   9  65 W6        29.99S WCI  11
BUFFALO SD       N/A     18  12  77 E9        29.77F WCI   7
RAPID CITY     MOCLDY    24  18  77 NE6       29.85F WCI  17
$$

REGIONAL REPORTS...WYOMING/IDAHO/WASHINGTON

CITY           SKY/WX    TMP DP  RH WIND       PRES   REMARKS
GILLETTE       FAIR      36  22  56 S12       29.66F WCI  28
SHERIDAN       FAIR      28  22  78 NW8       29.65F WCI  20
BUFFALO WY     FAIR      33  22  63 VRB3      29.61F
CODY           FAIR      39  17  41 W9G21     29.61F
YELLOWSTONE LA   N/A     23  19  85 W12G25    29.69F WCI  12
IDAHO FALLS    CLOUDY    43  21  41 S24G35    29.78F
SALMON         CLOUDY    46  25  43 SW15G26   29.55F
BOISE          CLOUDY    47  29  49 SE17      29.75F
SPOKANE        PTSUNNY   41  36  82 SW21      29.37S
$$

REGIONAL REPORTS...ALBERTA

CITY           SKY/WX    TMP DP  RH WIND       PRES   REMARKS
CALGARY        LGT SNOW   7   3  85 NE6       29.75S WCI  -3
EDMONTON       CLEAR      5  -6  61 N5        29.84F
FORT MCMURRAY  CLOUDY     5  -4  66 N8        29.92S WCI  -8
HIGH LEVEL     FLURRIES  14   3  62 NW10      29.98S WCI   1
LETHBRIDGE     LGT SNOW   9   5  85 NE12      29.73F VSB 3/4 WCI  -6
LLOYDMINSTER   CLOUDY     7  -2  66 NW9G17    29.81R WCI  -7
MEDICINE HAT   CLOUDY    12   1  62 NE12      29.80F WCI  -2
ONEFOUR          N/A      9   7  92 E22         N/A  WCI -11
PEACE RIVER    PTCLDY    10  -4  52 N10G23    29.97S WCI  -3
PINCHER CREEK  SNOW       7   3  85 NE15      29.67S VSB 3/8 WCI -11
$$

REGIONAL REPORTS...SASKATCHEWAN

CITY           SKY/WX    TMP DP  RH WIND       PRES   REMARKS
CORONACH         N/A     10   1  67 NW5         N/A
CYPRESS HILLS    N/A      5  -4  66 NE7         N/A  WCI  -7
ESTEVAN        MOCLDY     7   0  72 W7        29.89F WCI  -5
MOOSE JAW        N/A      9   0  66 W8          N/A  WCI  -4
PRINCE ALBERT  MOCLDY    10  -2  56 NW9       29.85S WCI  -2
REGINA         MOCLDY     3  -2  78 W7        29.84F WCI  -9
ROCKGLEN         N/A      9  -2  61 NW3         N/A
SASKATOON      CLOUDY     9   0  66 W7        29.86S WCI  -3
SWIFT CURRENT  PTCLDY     9   0  66 W8        29.78F WCI  -4
VAL MARIE        N/A      9   1  72 S3          N/A
$$




USA.gov is the U.S. government's official web portal to all federal, state and local government web resources and services.